sat.trackr.live / text

‹ back to catalog

GLOBAL-4

NORAD 44499 · 2019-054E

PAYLOAD ACTIVE UNKNOWN

§ Identity

Operator
Country
US
Launch date
2019-08-19
Launch site
RLLB
Launch vehicle
Mass (kg)
RCS (m²)

External: N2YO · Heavens-Above · Gunter

§ Orbital elements

Epoch: 2026-05-25T00:13:23.634048Z

Period
92.19 min
Inclination
45.0079°
Eccentricity
0.0005098
Mean motion
15.61907714 rev/d
Perigee alt
378.7 km
Apogee alt
385.6 km
Semi-major
6,760.3 km
B*
4.8904e-4
RAAN
9.9044°
Arg perigee
200.2463°
Mean anomaly
159.8232°
Rev number
37,673

§ Raw data

GLOBAL-41 44499U 19054E   26145.00930132  .00043460  00000+0  48904-3 0  99992 44499  45.0079   9.9044 0005098 200.2463 159.8232 15.61907714376739

JSON: /api/v1/satellites/44499 · /tle

For live sub-satellite position, see the globe view (requires WebGL).

§ Visibility from observer

Set your observer location to see the next 7 days of passes ≥ 10°. The values pass through the URL so the page stays shareable.

No JS? Fill the form by hand. The geolocation button needs JavaScript.

§ Radio — SatNOGS DB

ModeDescriptionDownlinkUplink
FM Downlink 401.500 MHz

1 transmitter · refreshed weekly from db.satnogs.org